User: anonymous   Login
Location: Mentone
(34.5413°N, 85.5351°W)
Time: 17:13:27
(UTC-06:00)
Language:

Centaur AC-72 - Orbit

View from above orbital plane
View from above orbital plane
View from above satellite
View from above satellite

Ground track
Ground track

The orbit data is extracted from the following two-line orbital elements,

1 21907U 92013B   14354.62049287  .00000031  00000-0  00000+0 0  9712
2 21907 019.1005 200.6698 6933289 341.5601 006.7841 02.25606671187746
Epoch (UTC): 20 December 2014 14:53:30
Eccentricity: 0.6933289
inclination: 19.1005°
perigee height: 1152 km
apogee height: 35204 km
right ascension of ascending node: 200.6698°
argument of perigee: 341.5601°
revolutions per day: 2.25606671
mean anomaly at epoch: 6.7841°
orbit number at epoch: 18774

The dashed part of the orbit path shows where the satellite is in the earth's shadow,  

DLR